Muskegon, MI

12:09 PM EDT on October 23, 2019 (GMT -0400)
Muskegon County

Weather History for KMKG - August, 2019

Change the Weather History Date:

Friday, August 9, 2019

  Actual Average Record
Temperature  
Mean Temperature 69 °F 71 °F  
Max Temperature 78 °F 80 °F 91 °F (1970)
Min Temperature 59 °F 62 °F 40 °F (1964)
Degree Days  
Heating Degree Days 0 0  
Month to date heating degree days 0 0  
Since 1 June heating degree days 58 77  
Since 1 July heating degree days 1 11  
Cooling Degree Days 4 6  
Month to date cooling degree days 50 54  
Year to date cooling degree days 421 390  
Since 1 June cooling degree days 418 361  
Growing Degree Days 18 (Base 50)    
Moisture  
Dew Point 57 °F    
Average Humidity 65    
Maximum Humidity 84    
Minimum Humidity 46    
Precipitation  
Precipitation 0.00 in 0.11 in 0.83 in (1960)
Month to date precipitation 0.71 0.94  
Year to date precipitation 25.68 18.13  
Snow  
Snow 0.00 in 0.00 in - ()
Month to date snowfall 0.0 0.0  
Since 1 June snowfall 0.0 0.0  
Since 1 July snowfall 0.0 0.0  
Snow Depth 0.00 in    
Sea Level Pressure  
Sea Level Pressure 29.93 in    
Wind  
Wind Speed 6 mph (West)    
Max Wind Speed 15 mph    
Max Gust Speed 21 mph    
Visibility 10 miles    
Events      
T = Trace of Precipitation, MM = Missing Value Source: NWS Daily Summary

Daily Weather History Graph

Daily Weather History Graph

Search for Another Location

Airport or City:

Astronomy

Aug. 09, 2019 Rise Set
Actual Time 6:43 AM EDT 8:56 PM EDT
Civil Twilight 6:12 AM EDT 9:27 PM EDT
Nautical Twilight 5:33 AM EDT 10:06 PM EDT
Astronomical Twilight 4:50 AM EDT 10:49 PM EDT
Moon 4:39 PM EDT (8/9) 1:39 AM EDT (8/9)
Length of Visible Light 15h 15m
Length of Day
14h 12m
Waxing Gibbous, 70% of the Moon is Illuminated
Aug 9
Waxing Gibbous
Aug 15
Full
Aug 23
Last Quarter
Aug 30
New
Sep 5
First Quarter

Hourly Weather History & Observations

Time (EDT) Temp. Dew Point Humidity Pressure Visibility Wind Dir Wind Speed Gust Speed Precip Events Conditions
12:55 AM 61.0 °F 55.9 °F 83% 29.88 in 10.0 mi SW 4.6 mph - N/A   Clear
1:55 AM 62.1 °F 57.0 °F 84% 29.88 in 10.0 mi Calm Calm - N/A   Clear
2:55 AM 61.0 °F 55.9 °F 83% 29.88 in 10.0 mi Calm Calm - N/A   Clear
3:55 AM 66.9 °F 55.9 °F 68% 29.87 in 10.0 mi WNW 5.8 mph - N/A   Clear
4:55 AM 66.0 °F 55.9 °F 70% 29.88 in 10.0 mi West 4.6 mph - N/A   Clear
5:55 AM 64.9 °F 55.9 °F 73% 29.88 in 10.0 mi NW 3.5 mph - N/A   Clear
6:55 AM 62.1 °F 55.0 °F 78% 29.90 in 10.0 mi Calm Calm - N/A   Clear
7:55 AM 64.0 °F 59.0 °F 84% 29.91 in 10.0 mi Calm Calm - N/A   Clear
8:55 AM 72.0 °F 57.9 °F 61% 29.93 in 10.0 mi NW 4.6 mph - N/A   Clear
9:55 AM 73.0 °F 59.0 °F 61% 29.94 in 10.0 mi West 8.1 mph - N/A   Partly Cloudy
10:55 AM 75.0 °F 57.0 °F 53% 29.94 in 10.0 mi WNW 11.5 mph - N/A   Partly Cloudy
11:55 AM 75.9 °F 57.9 °F 54% 29.95 in 10.0 mi West 11.5 mph - N/A   Partly Cloudy
12:55 PM 75.0 °F 57.0 °F 53% 29.95 in 10.0 mi WNW 11.5 mph - N/A   Partly Cloudy
1:55 PM 75.9 °F 55.9 °F 50% 29.96 in 10.0 mi West 13.8 mph - N/A   Partly Cloudy
2:55 PM 77.0 °F 55.0 °F 47% 29.95 in 10.0 mi WNW 12.7 mph 20.7 mph N/A   Scattered Clouds
3:55 PM 75.9 °F 54.0 °F 46% 29.94 in 10.0 mi WNW 12.7 mph - N/A   Scattered Clouds
4:55 PM 75.9 °F 55.9 °F 50% 29.94 in 10.0 mi WSW 10.4 mph - N/A   Scattered Clouds
5:55 PM 77.0 °F 55.9 °F 48% 29.94 in 10.0 mi West 8.1 mph - N/A   Scattered Clouds
6:55 PM 75.0 °F 55.0 °F 50% 29.94 in 10.0 mi West 8.1 mph - N/A   Scattered Clouds
7:55 PM 73.0 °F 55.0 °F 53% 29.94 in 10.0 mi West 5.8 mph - N/A   Mostly Cloudy
8:55 PM 69.1 °F 57.0 °F 65% 29.95 in 10.0 mi Calm Calm - N/A   Mostly Cloudy
9:55 PM 64.9 °F 57.9 °F 78% 29.96 in 10.0 mi Calm Calm - N/A   Mostly Cloudy
10:55 PM 64.0 °F 57.9 °F 80% 29.96 in 10.0 mi Calm Calm - N/A   Mostly Cloudy
11:55 PM 61.0 °F 55.9 °F 83% 29.96 in 10.0 mi SSW 4.6 mph - N/A   Clear